Time,TemperatureF,DewpointF,PressureIn,WindDirection,WindDirectionDegrees,WindSpeedMPH,WindSpeedGustMPH,Humidity,HourlyPrecipIn,Conditions,Clouds,dailyrainin,SoftwareType,DateUTC
2013-03-15 00:00:00,30.1,5.8,29.82,NW,315,7.0,20.0,35,0.00,,---,0.00,VWS V14.01,2013-03-15 04:00:00,
2013-03-15 00:30:00,30.1,5.8,29.82,NW,315,6.0,15.0,35,0.00,,---,0.00,VWS V14.01,2013-03-15 04:30:00,
2013-03-15 01:00:00,30.1,5.8,29.82,NW,315,8.0,21.0,35,0.00,,---,0.00,VWS V14.01,2013-03-15 05:00:00,
2013-03-15 01:30:00,30.0,5.7,29.82,WNW,292,8.0,18.0,35,0.00,,---,0.00,VWS V14.01,2013-03-15 05:30:00,
2013-03-15 02:00:00,29.8,5.5,29.83,NW,315,7.0,21.0,35,0.00,,---,0.00,VWS V14.01,2013-03-15 06:00:00,
2013-03-15 02:30:00,29.5,5.2,29.82,NW,315,8.0,20.0,35,0.00,,---,0.00,VWS V14.01,2013-03-15 06:30:00,
2013-03-15 03:00:00,29.4,5.1,29.82,NW,315,6.0,14.0,35,0.00,,---,0.00,VWS V14.01,2013-03-15 07:00:00,
2013-03-15 03:30:00,29.4,5.1,29.82,NW,315,7.0,18.0,35,0.00,,---,0.00,VWS V14.01,2013-03-15 07:30:00,
2013-03-15 04:00:00,29.1,4.9,29.82,NNW,338,7.0,17.0,35,0.00,,---,0.00,VWS V14.01,2013-03-15 08:00:00,
2013-03-15 04:30:00,28.8,4.6,29.82,NW,315,9.0,20.0,35,0.00,,---,0.00,VWS V14.01,2013-03-15 08:30:00,
2013-03-15 05:00:00,28.5,4.3,29.82,NW,315,8.0,19.0,35,0.00,,---,0.00,VWS V14.01,2013-03-15 09:00:00,
2013-03-15 05:30:00,27.9,3.8,29.83,NW,315,5.0,14.0,35,0.00,,---,0.00,VWS V14.01,2013-03-15 09:30:00,
2013-03-15 06:00:00,27.3,3.3,29.84,NW,315,5.0,13.0,35,0.00,,---,0.00,VWS V14.01,2013-03-15 10:00:00,
2013-03-15 06:30:00,26.9,2.9,29.85,NW,315,4.0,12.0,35,0.00,,---,0.00,VWS V14.01,2013-03-15 10:30:00,
2013-03-15 07:00:00,26.9,2.9,29.85,NW,315,5.0,13.0,35,0.00,,---,0.00,VWS V14.01,2013-03-15 11:00:00,
2013-03-15 07:30:00,26.7,2.7,29.86,WNW,292,4.0,12.0,35,0.00,,---,0.00,VWS V14.01,2013-03-15 11:30:00,
2013-03-15 08:00:00,27.3,3.3,29.86,NW,315,5.0,14.0,35,0.00,,---,0.00,VWS V14.01,2013-03-15 12:00:00,
2013-03-15 08:30:00,27.8,3.7,29.86,NNW,338,6.0,18.0,35,0.00,,---,0.00,VWS V14.01,2013-03-15 12:30:00,
2013-03-15 09:00:00,28.4,4.2,29.87,NNW,338,3.0,11.0,35,0.00,,---,0.00,VWS V14.01,2013-03-15 13:00:00,
2013-03-15 09:30:00,29.4,5.1,29.87,West,270,3.0,13.0,35,0.00,,---,0.00,VWS V14.01,2013-03-15 13:30:00,
2013-03-15 10:00:00,30.6,6.2,29.86,NW,315,4.0,17.0,35,0.00,,---,0.00,VWS V14.01,2013-03-15 14:00:00,
2013-03-15 10:30:00,31.2,6.1,29.85,WNW,292,6.0,16.0,34,0.00,,---,0.00,VWS V14.01,2013-03-15 14:30:00,
2013-03-15 11:00:00,33.1,7.8,29.84,West,270,5.0,14.0,34,0.00,,---,0.00,VWS V14.01,2013-03-15 15:00:00,
2013-03-15 11:30:00,33.8,8.4,29.82,West,270,6.0,17.0,34,0.00,,---,0.00,VWS V14.01,2013-03-15 15:30:00,
2013-03-15 12:00:00,33.1,7.8,29.81,WNW,292,6.0,13.0,34,0.00,,---,0.00,VWS V14.01,2013-03-15 16:00:00,
2013-03-15 12:30:00,34.6,9.8,29.79,WSW,248,5.0,13.0,35,0.00,,---,0.00,VWS V14.01,2013-03-15 16:30:00,
2013-03-15 13:00:00,36.5,11.5,29.76,WSW,248,7.0,16.0,35,0.00,,---,0.00,VWS V14.01,2013-03-15 17:00:00,
2013-03-15 13:30:00,36.3,11.3,29.74,SW,225,7.0,15.0,35,0.00,,---,0.00,VWS V14.01,2013-03-15 17:30:00,
2013-03-15 14:00:00,37.0,11.9,29.73,SW,225,8.0,20.0,35,0.00,,---,0.00,VWS V14.01,2013-03-15 18:00:00,
2013-03-15 14:30:00,39.2,13.2,29.70,SW,225,9.0,20.0,34,0.00,,---,0.00,VWS V14.01,2013-03-15 18:30:00,
2013-03-15 15:00:00,39.6,13.6,29.69,West,270,10.0,21.0,34,0.00,,---,0.00,VWS V14.01,2013-03-15 19:00:00,
2013-03-15 15:30:00,40.6,14.4,29.68,West,270,11.0,29.0,34,0.00,,---,0.00,VWS V14.01,2013-03-15 19:30:00,
2013-03-15 16:27:00,39.6,14.2,29.66,WSW,237,18.0,18.0,35,0.00,,---,0.00,VWS V14.01,2013-03-15 20:27:00,
2013-03-15 16:30:00,39.5,14.1,29.66,West,260,14.0,26.0,35,0.00,,---,0.00,VWS V14.01,2013-03-15 20:30:00,
2013-03-15 16:32:00,39.5,14.1,29.66,WNW,299,12.0,16.0,35,0.00,,---,0.00,VWS V14.01,2013-03-15 20:32:00,
2013-03-15 16:37:00,39.5,14.1,29.66,West,265,5.0,18.0,35,0.00,,---,0.00,VWS V14.01,2013-03-15 20:37:00,
2013-03-15 16:42:00,39.6,14.2,29.66,WSW,252,11.0,18.0,35,0.00,,---,0.00,VWS V14.01,2013-03-15 20:42:00,
2013-03-15 16:47:00,39.6,14.2,29.66,WSW,253,5.0,18.0,35,0.00,,---,0.00,VWS V14.01,2013-03-15 20:47:00,
2013-03-15 16:52:00,39.5,14.1,29.66,WNW,302,11.0,21.0,35,0.00,,---,0.00,VWS V14.01,2013-03-15 20:52:00,
2013-03-15 16:57:00,39.3,14.6,29.66,WSW,248,11.0,21.0,36,0.00,,---,0.00,VWS V14.01,2013-03-15 20:57:00,
2013-03-15 17:00:00,39.3,14.6,29.65,WNW,287,6.0,21.0,36,0.00,,---,0.00,VWS V14.01,2013-03-15 21:00:00,
2013-03-15 17:02:00,39.3,14.6,29.65,West,278,17.0,17.0,36,0.00,,---,0.00,VWS V14.01,2013-03-15 21:02:00,
2013-03-15 17:07:00,39.2,14.5,29.65,WNW,299,10.0,25.0,36,0.00,,---,0.00,VWS V14.01,2013-03-15 21:07:00,
2013-03-15 17:12:00,39.2,14.5,29.65,West,260,8.0,25.0,36,0.00,,---,0.00,VWS V14.01,2013-03-15 21:12:00,
2013-03-15 17:17:00,39.2,14.5,29.65,West,278,7.0,25.0,36,0.00,,---,0.00,VWS V14.01,2013-03-15 21:17:00,
2013-03-15 17:22:00,39.2,14.5,29.65,WNW,295,7.0,25.0,36,0.00,,---,0.00,VWS V14.01,2013-03-15 21:22:00,
2013-03-15 17:27:00,39.2,14.5,29.65,West,267,3.0,25.0,36,0.00,,---,0.00,VWS V14.01,2013-03-15 21:27:00,
2013-03-15 17:30:00,39.1,14.4,29.65,WNW,287,14.0,25.0,36,0.00,,---,0.00,VWS V14.01,2013-03-15 21:30:00,
2013-03-15 17:32:00,39.1,14.4,29.65,West,268,11.0,16.0,36,0.00,,---,0.00,VWS V14.01,2013-03-15 21:32:00,
2013-03-15 17:37:00,39.1,14.4,29.65,WSW,243,6.0,17.0,36,0.00,,---,0.00,VWS V14.01,2013-03-15 21:37:00,
2013-03-15 17:42:00,39.1,14.4,29.65,WNW,284,9.0,20.0,36,0.00,,---,0.00,VWS V14.01,2013-03-15 21:42:00,
2013-03-15 17:47:00,39.2,14.5,29.65,West,264,2.0,20.0,36,0.00,,---,0.00,VWS V14.01,2013-03-15 21:47:00,
2013-03-15 17:52:00,39.3,14.6,29.65,SW,228,11.0,20.0,36,0.00,,---,0.00,VWS V14.01,2013-03-15 21:52:00,
2013-03-15 17:57:00,39.3,14.6,29.65,WNW,287,4.0,20.0,36,0.00,,---,0.00,VWS V14.01,2013-03-15 21:57:00,
2013-03-15 18:00:00,39.5,14.8,29.65,West,279,10.0,20.0,36,0.00,,---,0.00,VWS V14.01,2013-03-15 22:00:00,
2013-03-15 18:02:00,39.5,14.8,29.65,NW,318,6.0,13.0,36,0.00,,---,0.00,VWS V14.01,2013-03-15 22:02:00,
2013-03-15 18:07:00,39.6,14.9,29.65,WSW,248,11.0,15.0,36,0.00,,---,0.00,VWS V14.01,2013-03-15 22:07:00,
2013-03-15 18:12:00,39.8,15.0,29.65,WNW,297,5.0,18.0,36,0.00,,---,0.00,VWS V14.01,2013-03-15 22:12:00,
2013-03-15 18:17:00,39.9,15.1,29.65,WNW,302,5.0,18.0,36,0.00,,---,0.00,VWS V14.01,2013-03-15 22:17:00,
2013-03-15 18:22:00,39.9,15.1,29.65,NNW,333,9.0,18.0,36,0.00,,---,0.00,VWS V14.01,2013-03-15 22:22:00,
2013-03-15 18:27:00,39.9,15.1,29.65,WNW,302,4.0,18.0,36,0.00,,---,0.00,VWS V14.01,2013-03-15 22:27:00,
2013-03-15 18:30:00,39.9,15.1,29.65,WNW,302,7.0,18.0,36,0.00,,---,0.00,VWS V14.01,2013-03-15 22:30:00,
2013-03-15 18:32:00,39.9,15.1,29.65,WNW,295,5.0,10.0,36,0.00,,---,0.00,VWS V14.01,2013-03-15 22:32:00,
2013-03-15 18:37:00,40.1,15.3,29.65,WNW,298,4.0,17.0,36,0.00,,---,0.00,VWS V14.01,2013-03-15 22:37:00,
2013-03-15 18:42:00,40.1,15.3,29.65,WNW,296,6.0,17.0,36,0.00,,---,0.00,VWS V14.01,2013-03-15 22:42:00,
2013-03-15 18:47:00,40.1,15.3,29.65,WNW,302,9.0,17.0,36,0.00,,---,0.00,VWS V14.01,2013-03-15 22:47:00,
2013-03-15 18:52:00,40.1,15.3,29.65,West,259,8.0,17.0,36,0.00,,---,0.00,VWS V14.01,2013-03-15 22:52:00,
2013-03-15 18:57:00,40.2,15.4,29.65,WNW,301,3.0,17.0,36,0.00,,---,0.00,VWS V14.01,2013-03-15 22:57:00,
2013-03-15 19:00:00,40.2,15.4,29.65,West,277,8.0,17.0,36,0.00,,---,0.00,VWS V14.01,2013-03-15 23:00:00,
2013-03-15 19:02:00,40.2,15.4,29.65,West,269,6.0,9.0,36,0.00,,---,0.00,VWS V14.01,2013-03-15 23:02:00,
2013-03-15 19:07:00,40.2,15.4,29.65,NW,312,4.0,9.0,36,0.00,,---,0.00,VWS V14.01,2013-03-15 23:07:00,
2013-03-15 19:13:00,40.2,15.4,29.65,West,278,4.0,9.0,36,0.00,,---,0.00,VWS V14.01,2013-03-15 23:13:00,
2013-03-15 19:18:00,40.2,15.4,29.65,West,270,1.0,9.0,36,0.00,,---,0.00,VWS V14.01,2013-03-15 23:18:00,
2013-03-15 19:23:00,40.1,15.3,29.65,West,269,1.0,10.0,36,0.00,,---,0.00,VWS V14.01,2013-03-15 23:23:00,
2013-03-15 19:28:00,40.1,15.3,29.65,WNW,302,3.0,10.0,36,0.00,,---,0.00,VWS V14.01,2013-03-15 23:28:00,
2013-03-15 19:30:00,40.1,15.3,29.65,WNW,286,3.0,10.0,36,0.00,,---,0.00,VWS V14.01,2013-03-15 23:30:00,
2013-03-15 19:33:00,40.1,15.3,29.65,WNW,286,3.0,11.0,36,0.00,,---,0.00,VWS V14.01,2013-03-15 23:33:00,
2013-03-15 19:38:00,40.2,15.4,29.65,West,271,5.0,11.0,36,0.00,,---,0.00,VWS V14.01,2013-03-15 23:38:00,
2013-03-15 19:43:00,40.2,15.4,29.65,WNW,298,3.0,13.0,36,0.00,,---,0.00,VWS V14.01,2013-03-15 23:43:00,
2013-03-15 19:48:00,40.3,15.5,29.65,NW,317,6.0,21.0,36,0.00,,---,0.00,VWS V14.01,2013-03-15 23:48:00,
2013-03-15 19:53:00,40.3,15.5,29.65,NW,304,2.0,21.0,36,0.00,,---,0.00,VWS V14.01,2013-03-15 23:53:00,
2013-03-15 19:58:00,40.2,15.4,29.65,NW,309,7.0,21.0,36,0.00,,---,0.00,VWS V14.01,2013-03-15 23:58:00,
2013-03-15 20:00:00,40.2,15.4,29.66,West,279,6.0,21.0,36,0.00,,---,0.00,VWS V14.01,2013-03-16 00:00:00,
2013-03-15 20:03:00,40.2,15.4,29.66,WNW,300,4.0,11.0,36,0.00,,---,0.00,VWS V14.01,2013-03-16 00:03:00,
2013-03-15 20:08:00,40.1,15.3,29.66,NW,311,6.0,11.0,36,0.00,,---,0.00,VWS V14.01,2013-03-16 00:08:00,
2013-03-15 20:13:00,40.1,15.3,29.66,West,259,9.0,17.0,36,0.00,,---,0.00,VWS V14.01,2013-03-16 00:13:00,
2013-03-15 20:18:00,40.1,15.3,29.65,WNW,293,5.0,17.0,36,0.00,,---,0.00,VWS V14.01,2013-03-16 00:18:00,
2013-03-15 20:23:00,40.1,15.3,29.65,West,268,10.0,17.0,36,0.00,,---,0.00,VWS V14.01,2013-03-16 00:23:00,
2013-03-15 20:28:00,39.9,15.8,29.65,WNW,290,4.0,17.0,37,0.00,,---,0.00,VWS V14.01,2013-03-16 00:28:00,
2013-03-15 20:30:00,39.8,15.7,29.65,WSW,253,8.0,17.0,37,0.00,,---,0.00,VWS V14.01,2013-03-16 00:30:00,
2013-03-15 20:33:00,39.8,15.7,29.65,WSW,257,2.0,14.0,37,0.00,,---,0.00,VWS V14.01,2013-03-16 00:33:00,
2013-03-15 20:38:00,39.8,15.7,29.65,West,281,10.0,19.0,37,0.00,,---,0.00,VWS V14.01,2013-03-16 00:38:00,
2013-03-15 20:43:00,39.8,15.7,29.65,West,274,6.0,19.0,37,0.00,,---,0.00,VWS V14.01,2013-03-16 00:43:00,
2013-03-15 20:48:00,39.6,15.5,29.65,West,279,9.0,19.0,37,0.00,,---,0.00,VWS V14.01,2013-03-16 00:48:00,
2013-03-15 20:53:00,39.6,15.5,29.65,WNW,286,11.0,19.0,37,0.00,,---,0.00,VWS V14.01,2013-03-16 00:53:00,
2013-03-15 20:58:00,39.6,15.5,29.65,WNW,296,5.0,19.0,37,0.00,,---,0.00,VWS V14.01,2013-03-16 00:58:00,
2013-03-15 21:00:00,39.5,15.4,29.65,WNW,300,3.0,19.0,37,0.00,,---,0.00,VWS V14.01,2013-03-16 01:00:00,
2013-03-15 21:03:00,39.5,15.4,29.65,West,280,11.0,15.0,37,0.00,,---,0.00,VWS V14.01,2013-03-16 01:03:00,
2013-03-15 21:08:00,39.5,15.4,29.65,West,265,7.0,15.0,37,0.00,,---,0.00,VWS V14.01,2013-03-16 01:08:00,
2013-03-15 21:13:00,39.3,15.2,29.65,WNW,292,5.0,15.0,37,0.00,,---,0.00,VWS V14.01,2013-03-16 01:13:00,
2013-03-15 21:18:00,39.3,15.2,29.65,WNW,302,7.0,15.0,37,0.00,,---,0.00,VWS V14.01,2013-03-16 01:18:00,
2013-03-15 21:23:00,39.2,15.1,29.65,West,263,4.0,15.0,37,0.00,,---,0.00,VWS V14.01,2013-03-16 01:23:00,
2013-03-15 21:28:00,39.1,15.0,29.65,WNW,298,4.0,15.0,37,0.00,,---,0.00,VWS V14.01,2013-03-16 01:28:00,
2013-03-15 21:30:00,39.1,15.0,29.65,West,277,4.0,15.0,37,0.00,,---,0.00,VWS V14.01,2013-03-16 01:30:00,
2013-03-15 21:33:00,38.9,14.9,29.65,WNW,297,4.0,10.0,37,0.00,,---,0.00,VWS V14.01,2013-03-16 01:33:00,
2013-03-15 21:38:00,38.9,14.9,29.65,West,274,5.0,12.0,37,0.00,,---,0.00,VWS V14.01,2013-03-16 01:38:00,
2013-03-15 21:43:00,38.8,14.8,29.65,WNW,288,4.0,12.0,37,0.00,,---,0.00,VWS V14.01,2013-03-16 01:43:00,
2013-03-15 21:48:00,38.8,14.8,29.65,NW,305,7.0,13.0,37,0.00,,---,0.00,VWS V14.01,2013-03-16 01:48:00,
2013-03-15 21:53:00,38.8,14.8,29.65,WNW,295,4.0,14.0,37,0.00,,---,0.00,VWS V14.01,2013-03-16 01:53:00,
2013-03-15 21:58:00,38.8,14.8,29.65,NW,304,3.0,14.0,37,0.00,,---,0.00,VWS V14.01,2013-03-16 01:58:00,
2013-03-15 22:00:00,38.8,14.8,29.65,WNW,299,4.0,14.0,37,0.00,,---,0.00,VWS V14.01,2013-03-16 02:00:00,
2013-03-15 22:03:00,38.8,14.8,29.65,NW,316,6.0,14.0,37,0.00,,---,0.00,VWS V14.01,2013-03-16 02:03:00,
2013-03-15 22:08:00,38.8,14.8,29.65,WNW,293,4.0,14.0,37,0.00,,---,0.00,VWS V14.01,2013-03-16 02:08:00,
2013-03-15 22:13:00,38.6,14.6,29.65,WNW,283,5.0,14.0,37,0.00,,---,0.00,VWS V14.01,2013-03-16 02:13:00,
2013-03-15 22:18:00,38.6,14.6,29.66,WNW,287,6.0,14.0,37,0.00,,---,0.00,VWS V14.01,2013-03-16 02:18:00,
2013-03-15 22:23:00,38.6,14.6,29.66,WNW,292,10.0,14.0,37,0.00,,---,0.00,VWS V14.01,2013-03-16 02:23:00,
2013-03-15 22:28:00,38.5,14.5,29.66,WNW,302,5.0,14.0,37,0.00,,---,0.00,VWS V14.01,2013-03-16 02:28:00,
2013-03-15 22:30:00,38.5,14.5,29.66,NW,309,10.0,14.0,37,0.00,,---,0.00,VWS V14.01,2013-03-16 02:30:00,
2013-03-15 22:33:00,38.5,14.5,29.66,NW,314,4.0,12.0,37,0.00,,---,0.00,VWS V14.01,2013-03-16 02:33:00,
2013-03-15 22:38:00,38.3,14.3,29.66,NW,313,8.0,12.0,37,0.00,,---,0.00,VWS V14.01,2013-03-16 02:38:00,
2013-03-15 22:43:00,38.3,14.3,29.66,WNW,291,5.0,12.0,37,0.00,,---,0.00,VWS V14.01,2013-03-16 02:43:00,
2013-03-15 22:48:00,38.2,14.2,29.66,NW,309,6.0,13.0,37,0.00,,---,0.00,VWS V14.01,2013-03-16 02:48:00,
2013-03-15 22:53:00,38.2,14.2,29.66,WNW,291,3.0,13.0,37,0.00,,---,0.00,VWS V14.01,2013-03-16 02:53:00,
2013-03-15 22:58:00,38.2,14.2,29.66,WNW,295,6.0,13.0,37,0.00,,---,0.00,VWS V14.01,2013-03-16 02:58:00,
2013-03-15 23:00:00,38.2,14.2,29.67,WNW,300,5.0,13.0,37,0.00,,---,0.00,VWS V14.01,2013-03-16 03:00:00,
2013-03-15 23:03:00,38.0,14.1,29.67,NW,306,6.0,9.0,37,0.00,,---,0.00,VWS V14.01,2013-03-16 03:03:00,
2013-03-15 23:08:00,37.9,14.0,29.67,WNW,283,1.0,9.0,37,0.00,,---,0.00,VWS V14.01,2013-03-16 03:08:00,
2013-03-15 23:13:00,37.8,13.9,29.67,NW,307,3.0,9.0,37,0.00,,---,0.00,VWS V14.01,2013-03-16 03:13:00,
2013-03-15 23:18:00,37.8,13.9,29.67,NW,311,3.0,9.0,37,0.00,,---,0.00,VWS V14.01,2013-03-16 03:18:00,
2013-03-15 23:23:00,37.6,13.7,29.67,NW,308,4.0,11.0,37,0.00,,---,0.00,VWS V14.01,2013-03-16 03:23:00,
2013-03-15 23:28:00,37.6,13.7,29.67,WNW,299,4.0,11.0,37,0.00,,---,0.00,VWS V14.01,2013-03-16 03:28:00,
2013-03-15 23:30:00,37.6,13.1,29.67,WNW,303,6.0,11.0,36,0.00,,---,0.00,VWS V14.01,2013-03-16 03:30:00,
2013-03-15 23:33:00,37.6,13.1,29.67,NW,320,3.0,11.0,36,0.00,,---,0.00,VWS V14.01,2013-03-16 03:33:00,
2013-03-15 23:38:00,37.6,13.1,29.67,WNW,288,3.0,11.0,36,0.00,,---,0.00,VWS V14.01,2013-03-16 03:38:00,
2013-03-15 23:43:00,37.6,13.1,29.67,West,273,7.0,11.0,36,0.00,,---,0.00,VWS V14.01,2013-03-16 03:43:00,
2013-03-15 23:48:00,37.6,13.1,29.67,WNW,300,7.0,12.0,36,0.00,,---,0.00,VWS V14.01,2013-03-16 03:48:00,
2013-03-15 23:53:00,37.6,13.1,29.67,WNW,298,4.0,12.0,36,0.00,,---,0.00,VWS V14.01,2013-03-16 03:53:00,
2013-03-15 23:58:00,37.6,13.1,29.67,WNW,300,3.0,12.0,36,0.00,,---,0.00,VWS V14.01,2013-03-16 03:58:00,